Year,Month,Day,Hour,Minute,Value (Times are PST for temperature in C)
2006,09,03,00,00,14.20
2006,09,03,00,01,14.20
2006,09,03,00,02,14.10
2006,09,03,00,03,14.10
2006,09,03,00,04,14.10
2006,09,03,00,05,14.10
2006,09,03,00,06,14.10
2006,09,03,00,07,14.10
2006,09,03,00,08,14.00
2006,09,03,00,09,14.00
2006,09,03,00,10,14.00
2006,09,03,00,11,14.00
2006,09,03,00,12,14.00
2006,09,03,00,13,14.00
2006,09,03,00,14,14.10
2006,09,03,00,15,14.10
2006,09,03,00,16,14.10
2006,09,03,00,17,14.10
2006,09,03,00,18,14.10
2006,09,03,00,19,14.10
2006,09,03,00,20,14.10
2006,09,03,00,21,14.00
2006,09,03,00,22,14.00
2006,09,03,00,23,14.00
2006,09,03,00,24,14.00
2006,09,03,00,25,14.00
2006,09,03,00,26,14.00
2006,09,03,00,27,14.00
2006,09,03,00,28,14.00
2006,09,03,00,29,14.00
2006,09,03,00,30,14.10
2006,09,03,00,31,14.10
2006,09,03,00,32,14.10
2006,09,03,00,33,14.10
2006,09,03,00,34,14.00
2006,09,03,00,35,14.00
2006,09,03,00,36,14.00
2006,09,03,00,37,14.00
2006,09,03,00,38,14.00
2006,09,03,00,39,14.00
2006,09,03,00,40,14.00
2006,09,03,00,41,14.00
2006,09,03,00,42,14.10
2006,09,03,00,43,14.10
2006,09,03,00,44,14.10
2006,09,03,00,45,14.10
2006,09,03,00,46,14.10
2006,09,03,00,47,14.10
2006,09,03,00,48,14.10
2006,09,03,00,49,14.20
2006,09,03,00,50,14.20
2006,09,03,00,51,14.20
2006,09,03,00,52,14.20
2006,09,03,00,53,14.20
2006,09,03,00,54,14.20
2006,09,03,00,55,14.20
2006,09,03,00,56,14.20
2006,09,03,00,57,14.30
2006,09,03,00,58,14.30
2006,09,03,00,59,14.30
2006,09,03,01,00,14.40
2006,09,03,01,01,14.40
2006,09,03,01,02,14.40
2006,09,03,01,03,14.40
2006,09,03,01,04,14.40
2006,09,03,01,05,14.40
2006,09,03,01,06,14.50
2006,09,03,01,07,14.50
2006,09,03,01,08,14.50
2006,09,03,01,09,14.50
2006,09,03,01,10,14.50
2006,09,03,01,11,14.50
2006,09,03,01,12,14.50
2006,09,03,01,13,14.50
2006,09,03,01,14,14.50
2006,09,03,01,15,14.50
2006,09,03,01,16,14.50
2006,09,03,01,17,14.50
2006,09,03,01,18,14.40
2006,09,03,01,19,14.40
2006,09,03,01,20,14.40
2006,09,03,01,21,14.40
2006,09,03,01,22,14.30
2006,09,03,01,23,14.30
2006,09,03,01,24,14.30
2006,09,03,01,25,14.30
2006,09,03,01,26,14.30
2006,09,03,01,27,14.20
2006,09,03,01,28,14.20
2006,09,03,01,29,14.20
2006,09,03,01,30,14.20
2006,09,03,01,31,14.20
2006,09,03,01,32,14.20
2006,09,03,01,33,14.20
2006,09,03,01,34,14.10
2006,09,03,01,35,14.10
2006,09,03,01,36,14.10
2006,09,03,01,37,14.10
2006,09,03,01,38,14.10
2006,09,03,01,39,14.00
2006,09,03,01,40,14.00
2006,09,03,01,41,14.00
2006,09,03,01,42,14.00
2006,09,03,01,43,13.90
2006,09,03,01,44,13.90
2006,09,03,01,45,13.90
2006,09,03,01,46,13.90
2006,09,03,01,47,13.90
2006,09,03,01,48,13.80
2006,09,03,01,49,13.80
2006,09,03,01,50,13.70
2006,09,03,01,51,13.70
2006,09,03,01,52,13.70
2006,09,03,01,53,13.60
2006,09,03,01,54,13.60
2006,09,03,01,55,13.60
2006,09,03,01,56,13.60
2006,09,03,01,57,13.60
2006,09,03,01,58,13.60
2006,09,03,01,59,13.60
2006,09,03,02,00,13.60
2006,09,03,02,01,13.50
2006,09,03,02,02,13.50
2006,09,03,02,03,13.50
2006,09,03,02,04,13.50
2006,09,03,02,05,13.50
2006,09,03,02,06,13.40
2006,09,03,02,07,13.40
2006,09,03,02,08,13.30
2006,09,03,02,09,13.30
2006,09,03,02,10,13.30
2006,09,03,02,11,13.30
2006,09,03,02,12,13.20
2006,09,03,02,13,13.10
2006,09,03,02,14,13.10
2006,09,03,02,15,13.10
2006,09,03,02,16,13.00
2006,09,03,02,17,13.00
2006,09,03,02,18,12.90
2006,09,03,02,19,12.90
2006,09,03,02,20,12.90
2006,09,03,02,21,12.90
2006,09,03,02,22,12.90
2006,09,03,02,23,12.80
2006,09,03,02,24,12.80
2006,09,03,02,25,12.80
2006,09,03,02,26,12.90
2006,09,03,02,27,12.90
2006,09,03,02,28,12.90
2006,09,03,02,29,12.90
2006,09,03,02,30,12.90
2006,09,03,02,31,12.90
2006,09,03,02,32,13.00
2006,09,03,02,33,13.10
2006,09,03,02,34,13.10
2006,09,03,02,35,13.20
2006,09,03,02,36,13.20
2006,09,03,02,37,13.20
2006,09,03,02,38,13.20
2006,09,03,02,39,13.20
2006,09,03,02,40,13.20
2006,09,03,02,41,13.20
2006,09,03,02,42,13.10
2006,09,03,02,43,13.10
2006,09,03,02,44,13.10
2006,09,03,02,45,13.10
2006,09,03,02,46,13.10
2006,09,03,02,47,13.10
2006,09,03,02,48,13.10
2006,09,03,02,49,13.10
2006,09,03,02,50,13.00
2006,09,03,02,51,13.00
2006,09,03,02,52,13.00
2006,09,03,02,53,13.00
2006,09,03,02,54,13.00
2006,09,03,02,55,13.00
2006,09,03,02,56,13.00
2006,09,03,02,57,13.00
2006,09,03,02,58,13.00
2006,09,03,02,59,13.00
2006,09,03,03,00,13.00
2006,09,03,03,01,13.00
2006,09,03,03,02,13.00
2006,09,03,03,03,13.00
2006,09,03,03,04,13.00
2006,09,03,03,05,13.00
2006,09,03,03,06,13.00
2006,09,03,03,07,13.00
2006,09,03,03,08,12.90
2006,09,03,03,09,12.90
2006,09,03,03,10,12.90
2006,09,03,03,11,12.90
2006,09,03,03,12,12.90
2006,09,03,03,13,12.90
2006,09,03,03,14,12.90
2006,09,03,03,15,13.00
2006,09,03,03,16,13.00
2006,09,03,03,17,13.00
2006,09,03,03,18,13.00
2006,09,03,03,19,13.00
2006,09,03,03,20,13.00
2006,09,03,03,21,13.00
2006,09,03,03,22,13.00
2006,09,03,03,23,13.00
2006,09,03,03,24,13.00
2006,09,03,03,25,13.00
2006,09,03,03,26,13.00
2006,09,03,03,27,13.10
2006,09,03,03,28,13.10
2006,09,03,03,29,13.20
2006,09,03,03,30,13.20
2006,09,03,03,31,13.30
2006,09,03,03,32,13.30
2006,09,03,03,33,13.30
2006,09,03,03,34,13.30
2006,09,03,03,35,13.30
2006,09,03,03,36,13.20
2006,09,03,03,37,13.20
2006,09,03,03,38,13.20
2006,09,03,03,39,13.20
2006,09,03,03,40,13.20
2006,09,03,03,41,13.10
2006,09,03,03,42,13.10
2006,09,03,03,43,13.10
2006,09,03,03,44,13.00
2006,09,03,03,45,13.00
2006,09,03,03,46,13.00
2006,09,03,03,47,13.00
2006,09,03,03,48,13.00
2006,09,03,03,49,12.90
2006,09,03,03,50,12.90
2006,09,03,03,51,12.90
2006,09,03,03,52,12.90
2006,09,03,03,53,12.80
2006,09,03,03,54,12.80
2006,09,03,03,55,12.80
2006,09,03,03,56,12.80
2006,09,03,03,57,12.80
2006,09,03,03,58,12.80
2006,09,03,03,59,12.70
2006,09,03,04,00,12.70
2006,09,03,04,01,12.70
2006,09,03,04,02,12.60
2006,09,03,04,03,12.60
2006,09,03,04,04,12.60
2006,09,03,04,05,12.50
2006,09,03,04,06,12.50
2006,09,03,04,07,12.40
2006,09,03,04,08,12.40
2006,09,03,04,09,12.40
2006,09,03,04,10,12.30
2006,09,03,04,11,12.30
2006,09,03,04,12,12.30
2006,09,03,04,13,12.30
2006,09,03,04,14,12.30
2006,09,03,04,15,12.20
2006,09,03,04,16,12.20
2006,09,03,04,17,12.20
2006,09,03,04,18,12.20
2006,09,03,04,19,12.10
2006,09,03,04,20,12.10
2006,09,03,04,21,12.10
2006,09,03,04,22,12.10
2006,09,03,04,23,12.00
2006,09,03,04,24,12.00
2006,09,03,04,25,12.00
2006,09,03,04,26,12.00
2006,09,03,04,27,12.00
2006,09,03,04,28,12.00
2006,09,03,04,29,12.00
2006,09,03,04,30,12.00
2006,09,03,04,31,12.00
2006,09,03,04,32,12.00
2006,09,03,04,33,12.00
2006,09,03,04,34,12.00
2006,09,03,04,35,12.00
2006,09,03,04,36,12.00
2006,09,03,04,37,12.00
2006,09,03,04,38,12.00
2006,09,03,04,39,12.00
2006,09,03,04,40,12.00
2006,09,03,04,41,12.00
2006,09,03,04,42,11.90
2006,09,03,04,43,11.90
2006,09,03,04,44,11.90
2006,09,03,04,45,11.90
2006,09,03,04,46,11.90
2006,09,03,04,47,11.90
2006,09,03,04,48,11.90
2006,09,03,04,49,11.90
2006,09,03,04,50,11.90
2006,09,03,04,51,11.90
2006,09,03,04,52,11.90
2006,09,03,04,53,11.80
2006,09,03,04,54,11.80
2006,09,03,04,55,11.80
2006,09,03,04,56,11.80
2006,09,03,04,57,11.80
2006,09,03,04,58,11.80
2006,09,03,04,59,11.80
2006,09,03,05,00,11.80
2006,09,03,05,01,11.80
2006,09,03,05,02,11.80
2006,09,03,05,03,11.80
2006,09,03,05,04,11.80
2006,09,03,05,05,11.70
2006,09,03,05,06,11.70
2006,09,03,05,07,11.70
2006,09,03,05,08,11.70
2006,09,03,05,09,11.70
2006,09,03,05,10,11.70
2006,09,03,05,11,11.70
2006,09,03,05,12,11.70
2006,09,03,05,13,11.60
2006,09,03,05,14,11.60
2006,09,03,05,15,11.60
2006,09,03,05,16,11.60
2006,09,03,05,17,11.60
2006,09,03,05,18,11.60
2006,09,03,05,19,11.60
2006,09,03,05,20,11.60
2006,09,03,05,21,11.60
2006,09,03,05,22,11.60
2006,09,03,05,23,11.60
2006,09,03,05,24,11.60
2006,09,03,05,25,11.60
2006,09,03,05,26,11.60
2006,09,03,05,27,11.60
2006,09,03,05,28,11.50
2006,09,03,05,29,11.40
2006,09,03,05,30,11.40
2006,09,03,05,31,11.40
2006,09,03,05,32,11.40
2006,09,03,05,33,11.40
2006,09,03,05,34,11.40
2006,09,03,05,35,11.40
2006,09,03,05,36,11.40
2006,09,03,05,37,11.40
2006,09,03,05,38,11.40
2006,09,03,05,39,11.40
2006,09,03,05,40,11.40
2006,09,03,05,41,11.40
2006,09,03,05,42,11.40
2006,09,03,05,43,11.40
2006,09,03,05,44,11.40
2006,09,03,05,45,11.40
2006,09,03,05,46,11.30
2006,09,03,05,47,11.30
2006,09,03,05,48,11.30
2006,09,03,05,49,11.30
2006,09,03,05,50,11.30
2006,09,03,05,51,11.30
2006,09,03,05,52,11.30
2006,09,03,05,53,11.30
2006,09,03,05,54,11.20
2006,09,03,05,55,11.20
2006,09,03,05,56,11.20
2006,09,03,05,57,11.20
2006,09,03,05,58,11.20
2006,09,03,05,59,11.20
2006,09,03,06,00,11.20
2006,09,03,06,01,11.10
2006,09,03,06,02,11.10
2006,09,03,06,03,11.10
2006,09,03,06,04,11.10
2006,09,03,06,05,11.10
2006,09,03,06,06,11.10
2006,09,03,06,07,11.10
2006,09,03,06,08,11.10
2006,09,03,06,09,11.10
2006,09,03,06,10,11.10
2006,09,03,06,11,11.00
2006,09,03,06,12,10.90
2006,09,03,06,13,10.90
2006,09,03,06,14,10.90
2006,09,03,06,15,10.90
2006,09,03,06,16,10.90
2006,09,03,06,17,10.90
2006,09,03,06,18,10.90
2006,09,03,06,19,10.90
2006,09,03,06,20,10.90
2006,09,03,06,21,10.90
2006,09,03,06,22,10.90
2006,09,03,06,23,10.90
2006,09,03,06,24,10.90
2006,09,03,06,25,10.90
2006,09,03,06,26,10.90
2006,09,03,06,27,10.90
2006,09,03,06,28,10.90
2006,09,03,06,29,10.90
2006,09,03,06,30,10.80
2006,09,03,06,31,10.80
2006,09,03,06,32,10.80
2006,09,03,06,33,10.80
2006,09,03,06,34,10.80
2006,09,03,06,35,10.80
2006,09,03,06,36,10.80
2006,09,03,06,37,10.80
2006,09,03,06,38,10.80
2006,09,03,06,39,10.80
2006,09,03,06,40,10.80
2006,09,03,06,41,10.80
2006,09,03,06,42,10.80
2006,09,03,06,43,10.80
2006,09,03,06,44,10.80
2006,09,03,06,45,10.80
2006,09,03,06,46,10.80
2006,09,03,06,47,10.80
2006,09,03,06,48,10.80
2006,09,03,06,49,10.80
2006,09,03,06,50,10.80
2006,09,03,06,51,10.80
2006,09,03,06,52,10.80
2006,09,03,06,53,10.80
2006,09,03,06,54,10.70
2006,09,03,06,55,10.70
2006,09,03,06,56,10.70
2006,09,03,06,57,10.70
2006,09,03,06,58,10.70
2006,09,03,06,59,10.70
2006,09,03,07,00,10.70
2006,09,03,07,01,10.80
2006,09,03,07,02,10.80
2006,09,03,07,03,10.80
2006,09,03,07,04,10.80
2006,09,03,07,05,10.80
2006,09,03,07,06,10.90
2006,09,03,07,07,10.90
2006,09,03,07,08,10.90
2006,09,03,07,09,10.90
2006,09,03,07,10,10.90
2006,09,03,07,11,10.90
2006,09,03,07,12,10.90
2006,09,03,07,13,10.90
2006,09,03,07,14,11.00
2006,09,03,07,15,11.10
2006,09,03,07,16,11.10
2006,09,03,07,17,11.10
2006,09,03,07,18,11.10
2006,09,03,07,19,11.10
2006,09,03,07,20,11.10
2006,09,03,07,21,11.10
2006,09,03,07,22,11.10
2006,09,03,07,23,11.20
2006,09,03,07,24,11.20
2006,09,03,07,25,11.30
2006,09,03,07,26,11.30
2006,09,03,07,27,11.40
2006,09,03,07,28,11.40
2006,09,03,07,29,11.40
2006,09,03,07,30,11.40
2006,09,03,07,31,11.40
2006,09,03,07,32,11.50
2006,09,03,07,33,11.60
2006,09,03,07,34,11.60
2006,09,03,07,35,11.60
2006,09,03,07,36,11.60
2006,09,03,07,37,11.60
2006,09,03,07,38,11.60
2006,09,03,07,39,11.70
2006,09,03,07,40,11.70
2006,09,03,07,41,11.80
2006,09,03,07,42,11.80
2006,09,03,07,43,11.80
2006,09,03,07,44,11.80
2006,09,03,07,45,11.80
2006,09,03,07,46,11.90
2006,09,03,07,47,12.00
2006,09,03,07,48,12.00
2006,09,03,07,49,12.00
2006,09,03,07,50,12.10
2006,09,03,07,51,12.10
2006,09,03,07,52,12.20
2006,09,03,07,53,12.20
2006,09,03,07,54,12.30
2006,09,03,07,55,12.30
2006,09,03,07,56,12.40
2006,09,03,07,57,12.40
2006,09,03,07,58,12.50
2006,09,03,07,59,12.60
2006,09,03,08,00,12.60
2006,09,03,08,01,12.70
2006,09,03,08,02,12.80
2006,09,03,08,03,12.80
2006,09,03,08,04,12.80
2006,09,03,08,05,12.90
2006,09,03,08,06,13.00
2006,09,03,08,07,13.00
2006,09,03,08,08,13.00
2006,09,03,08,09,13.10
2006,09,03,08,10,13.10
2006,09,03,08,11,13.20
2006,09,03,08,12,13.20
2006,09,03,08,13,13.30
2006,09,03,08,14,13.30
2006,09,03,08,15,13.40
2006,09,03,08,16,13.50
2006,09,03,08,17,13.60
2006,09,03,08,18,13.60
2006,09,03,08,19,13.70
2006,09,03,08,20,13.70
2006,09,03,08,21,13.80
2006,09,03,08,22,13.90
2006,09,03,08,23,13.90
2006,09,03,08,24,14.00
2006,09,03,08,25,14.00
2006,09,03,08,26,14.10
2006,09,03,08,27,14.20
2006,09,03,08,28,14.40
2006,09,03,08,29,14.50
2006,09,03,08,30,14.70
2006,09,03,08,31,14.80
2006,09,03,08,32,14.90
2006,09,03,08,33,15.00
2006,09,03,08,34,15.10
2006,09,03,08,35,15.30
2006,09,03,08,36,15.40
2006,09,03,08,37,15.60
2006,09,03,08,38,15.80
2006,09,03,08,39,16.00
2006,09,03,08,40,16.20
2006,09,03,08,41,16.30
2006,09,03,08,42,16.50
2006,09,03,08,43,16.70
2006,09,03,08,44,16.80
2006,09,03,08,45,16.90
2006,09,03,08,46,17.00
2006,09,03,08,47,17.10
2006,09,03,08,48,17.20
2006,09,03,08,49,17.30
2006,09,03,08,50,17.30
2006,09,03,08,51,17.40
2006,09,03,08,52,17.40
2006,09,03,08,53,17.50
2006,09,03,08,54,17.50
2006,09,03,08,55,17.60
2006,09,03,08,56,17.70
2006,09,03,08,57,17.70
2006,09,03,08,58,17.70
2006,09,03,08,59,17.80
2006,09,03,09,00,17.80
2006,09,03,09,01,17.80
2006,09,03,09,02,17.80
2006,09,03,09,03,17.80
2006,09,03,09,04,17.80
2006,09,03,09,05,17.80
2006,09,03,09,06,17.80
2006,09,03,09,07,17.80
2006,09,03,09,08,17.80
2006,09,03,09,09,17.70
2006,09,03,09,10,17.70
2006,09,03,09,11,17.70
2006,09,03,09,12,17.70
2006,09,03,09,13,17.70
2006,09,03,09,14,17.70
2006,09,03,09,15,17.70
2006,09,03,09,16,17.70
2006,09,03,09,17,17.70
2006,09,03,09,18,17.70
2006,09,03,09,19,17.70
2006,09,03,09,20,17.70
2006,09,03,09,21,17.70
2006,09,03,09,22,17.70
2006,09,03,09,23,17.70
2006,09,03,09,24,17.70
2006,09,03,09,25,17.80
2006,09,03,09,26,17.80
2006,09,03,09,27,17.80
2006,09,03,09,28,17.80
2006,09,03,09,29,17.80
2006,09,03,09,30,17.80
2006,09,03,09,31,17.80
2006,09,03,09,32,17.80
2006,09,03,09,33,17.80
2006,09,03,09,34,17.90
2006,09,03,09,35,17.90
2006,09,03,09,36,17.90
2006,09,03,09,37,17.90
2006,09,03,09,38,17.90
2006,09,03,09,39,17.90
2006,09,03,09,40,17.90
2006,09,03,09,41,18.00
2006,09,03,09,42,18.10
2006,09,03,09,43,18.10
2006,09,03,09,44,18.20
2006,09,03,09,45,18.20
2006,09,03,09,46,18.20
2006,09,03,09,47,18.30
2006,09,03,09,48,18.30
2006,09,03,09,49,18.30
2006,09,03,09,50,18.40
2006,09,03,09,51,18.40
2006,09,03,09,52,18.40
2006,09,03,09,53,18.40
2006,09,03,09,54,18.40
2006,09,03,09,55,18.50
2006,09,03,09,56,18.50
2006,09,03,09,57,18.60
2006,09,03,09,58,18.60
2006,09,03,09,59,18.70
2006,09,03,10,00,18.70
2006,09,03,10,01,18.80
2006,09,03,10,02,18.90
2006,09,03,10,03,18.90
2006,09,03,10,04,18.90
2006,09,03,10,05,18.90
2006,09,03,10,06,18.90
2006,09,03,10,07,18.90
2006,09,03,10,08,18.90
2006,09,03,10,09,18.90
2006,09,03,10,10,18.90
2006,09,03,10,11,18.90
2006,09,03,10,12,18.90
2006,09,03,10,13,18.90
2006,09,03,10,14,18.90
2006,09,03,10,15,19.00
2006,09,03,10,16,19.10
2006,09,03,10,17,19.10
2006,09,03,10,18,19.10
2006,09,03,10,19,19.20
2006,09,03,10,20,19.30
2006,09,03,10,21,19.40
2006,09,03,10,22,19.40
2006,09,03,10,23,19.40
2006,09,03,10,24,19.40
2006,09,03,10,25,19.40
2006,09,03,10,26,19.40
2006,09,03,10,27,19.40
2006,09,03,10,28,19.30
2006,09,03,10,29,19.30
2006,09,03,10,30,19.30
2006,09,03,10,31,19.10
2006,09,03,10,32,19.10
2006,09,03,10,33,19.10
2006,09,03,10,34,19.10
2006,09,03,10,35,19.10
2006,09,03,10,36,19.10
2006,09,03,10,37,19.20
2006,09,03,10,38,19.20
2006,09,03,10,39,19.30
2006,09,03,10,40,19.30
2006,09,03,10,41,19.40
2006,09,03,10,42,19.50
2006,09,03,10,43,19.50
2006,09,03,10,44,19.60
2006,09,03,10,45,19.60
2006,09,03,10,46,19.60
2006,09,03,10,47,19.60
2006,09,03,10,48,19.60
2006,09,03,10,49,19.60
2006,09,03,10,50,19.60
2006,09,03,10,51,19.60
2006,09,03,10,52,19.70
2006,09,03,10,53,19.70
2006,09,03,10,54,19.70
2006,09,03,10,55,19.80
2006,09,03,10,56,19.80
2006,09,03,10,57,19.70
2006,09,03,10,58,19.60
2006,09,03,10,59,19.60
2006,09,03,11,00,19.60
2006,09,03,11,01,19.50
2006,09,03,11,02,19.50
2006,09,03,11,03,19.50
2006,09,03,11,04,19.60
2006,09,03,11,05,19.60
2006,09,03,11,06,19.70
2006,09,03,11,07,19.70
2006,09,03,11,08,19.80
2006,09,03,11,09,19.90
2006,09,03,11,10,19.90
2006,09,03,11,11,20.00
2006,09,03,11,12,20.10
2006,09,03,11,13,20.20
2006,09,03,11,14,20.20
2006,09,03,11,15,20.30
2006,09,03,11,16,20.30
2006,09,03,11,17,20.30
2006,09,03,11,18,20.30
2006,09,03,11,19,20.20
2006,09,03,11,20,20.20
2006,09,03,11,21,20.20
2006,09,03,11,22,20.10
2006,09,03,11,23,20.00
2006,09,03,11,24,19.90
2006,09,03,11,25,19.90
2006,09,03,11,26,19.90
2006,09,03,11,27,19.90
2006,09,03,11,28,20.00
2006,09,03,11,29,20.10
2006,09,03,11,30,20.00
2006,09,03,11,31,19.90
2006,09,03,11,32,19.90
2006,09,03,11,33,19.90
2006,09,03,11,34,19.90
2006,09,03,11,35,19.90
2006,09,03,11,36,19.90
2006,09,03,11,37,19.90
2006,09,03,11,38,20.10
2006,09,03,11,39,20.10
2006,09,03,11,40,20.20
2006,09,03,11,41,20.30
2006,09,03,11,42,20.40
2006,09,03,11,43,20.50
2006,09,03,11,44,20.50
2006,09,03,11,45,20.60
2006,09,03,11,46,20.60
2006,09,03,11,47,20.70
2006,09,03,11,48,20.70
2006,09,03,11,49,20.80
2006,09,03,11,50,20.80
2006,09,03,11,51,20.70
2006,09,03,11,52,20.70
2006,09,03,11,53,20.70
2006,09,03,11,54,20.70
2006,09,03,11,55,20.80
2006,09,03,11,56,20.90
2006,09,03,11,57,20.90
2006,09,03,11,58,20.90
2006,09,03,11,59,20.90
2006,09,03,12,00,21.00
2006,09,03,12,01,21.00
2006,09,03,12,02,21.00
2006,09,03,12,03,21.00
2006,09,03,12,04,21.10
2006,09,03,12,05,21.10
2006,09,03,12,06,21.20
2006,09,03,12,07,21.20
2006,09,03,12,08,21.30
2006,09,03,12,09,21.30
2006,09,03,12,10,21.30
2006,09,03,12,11,21.30
2006,09,03,12,12,21.20
2006,09,03,12,13,21.20
2006,09,03,12,14,21.30
2006,09,03,12,15,21.30
2006,09,03,12,16,21.40
2006,09,03,12,17,21.50
2006,09,03,12,18,21.60
2006,09,03,12,19,21.60
2006,09,03,12,20,21.60
2006,09,03,12,21,21.60
2006,09,03,12,22,21.60
2006,09,03,12,23,21.60
2006,09,03,12,24,21.60
2006,09,03,12,25,21.60
2006,09,03,12,26,21.60
2006,09,03,12,27,21.60
2006,09,03,12,28,21.60
2006,09,03,12,29,21.60
2006,09,03,12,30,21.50
2006,09,03,12,31,21.40
2006,09,03,12,32,21.30
2006,09,03,12,33,21.30
2006,09,03,12,34,21.10
2006,09,03,12,35,21.00
2006,09,03,12,36,20.90
2006,09,03,12,37,20.90
2006,09,03,12,38,20.90
2006,09,03,12,39,21.00
2006,09,03,12,40,21.00
2006,09,03,12,41,21.00
2006,09,03,12,42,21.00
2006,09,03,12,43,21.00
2006,09,03,12,44,21.00
2006,09,03,12,45,21.00
2006,09,03,12,46,21.00
2006,09,03,12,47,21.10
2006,09,03,12,48,21.20
2006,09,03,12,49,21.30
2006,09,03,12,50,21.30
2006,09,03,12,51,21.30
2006,09,03,12,52,21.50
2006,09,03,12,53,21.60
2006,09,03,12,54,21.70
2006,09,03,12,55,21.80
2006,09,03,12,56,21.90
2006,09,03,12,57,22.00
2006,09,03,12,58,22.10
2006,09,03,12,59,22.20
2006,09,03,13,00,22.30
2006,09,03,13,01,22.30
2006,09,03,13,02,22.40
2006,09,03,13,03,22.40
2006,09,03,13,04,22.50
2006,09,03,13,05,22.50
2006,09,03,13,06,22.60
2006,09,03,13,07,22.60
2006,09,03,13,08,22.60
2006,09,03,13,09,22.60
2006,09,03,13,10,22.50
2006,09,03,13,11,22.50
2006,09,03,13,12,22.50
2006,09,03,13,13,22.50
2006,09,03,13,14,22.60
2006,09,03,13,15,22.60
2006,09,03,13,16,22.70
2006,09,03,13,17,22.60
2006,09,03,13,18,22.70
2006,09,03,13,19,22.70
2006,09,03,13,20,22.70
2006,09,03,13,21,22.70
2006,09,03,13,22,22.60
2006,09,03,13,23,22.50
2006,09,03,13,24,22.50
2006,09,03,13,25,22.60
2006,09,03,13,26,22.60
2006,09,03,13,27,22.60
2006,09,03,13,28,22.60
2006,09,03,13,29,22.70
2006,09,03,13,30,22.60
2006,09,03,13,31,22.60
2006,09,03,13,32,22.60
2006,09,03,13,33,22.60
2006,09,03,13,34,22.50
2006,09,03,13,35,22.50
2006,09,03,13,36,22.40
2006,09,03,13,37,22.30
2006,09,03,13,38,22.10
2006,09,03,13,39,22.10
2006,09,03,13,40,22.10
2006,09,03,13,41,22.10
2006,09,03,13,42,22.20
2006,09,03,13,43,22.30
2006,09,03,13,44,22.40
2006,09,03,13,45,22.40
2006,09,03,13,46,22.40
2006,09,03,13,47,22.50
2006,09,03,13,48,22.50
2006,09,03,13,49,22.60
2006,09,03,13,50,22.60
2006,09,03,13,51,22.70
2006,09,03,13,52,22.70
2006,09,03,13,53,22.70
2006,09,03,13,54,22.70
2006,09,03,13,55,22.70
2006,09,03,13,56,22.70
2006,09,03,13,57,22.80
2006,09,03,13,58,22.80
2006,09,03,13,59,22.90
2006,09,03,14,00,22.90
2006,09,03,14,01,23.10
2006,09,03,14,02,23.10
2006,09,03,14,03,23.30
2006,09,03,14,04,23.40
2006,09,03,14,05,23.50
2006,09,03,14,06,23.60
2006,09,03,14,07,23.70
2006,09,03,14,08,23.70
2006,09,03,14,09,23.80
2006,09,03,14,10,23.80
2006,09,03,14,11,23.90
2006,09,03,14,12,23.90
2006,09,03,14,13,24.00
2006,09,03,14,14,24.10
2006,09,03,14,15,24.10
2006,09,03,14,16,24.10
2006,09,03,14,17,24.10
2006,09,03,14,18,24.10
2006,09,03,14,19,24.10
2006,09,03,14,20,23.90
2006,09,03,14,21,23.80
2006,09,03,14,22,23.70
2006,09,03,14,23,23.70
2006,09,03,14,24,23.70
2006,09,03,14,25,23.70
2006,09,03,14,26,23.70
2006,09,03,14,27,23.70
2006,09,03,14,28,23.70
2006,09,03,14,29,23.70
2006,09,03,14,30,23.70
2006,09,03,14,31,23.70
2006,09,03,14,32,23.70
2006,09,03,14,33,23.60
2006,09,03,14,34,23.60
2006,09,03,14,35,23.60
2006,09,03,14,36,23.50
2006,09,03,14,37,23.40
2006,09,03,14,38,23.30
2006,09,03,14,39,23.30
2006,09,03,14,40,23.20
2006,09,03,14,41,23.20
2006,09,03,14,42,23.10
2006,09,03,14,43,23.10
2006,09,03,14,44,23.10
2006,09,03,14,45,23.10
2006,09,03,14,46,23.30
2006,09,03,14,47,23.30
2006,09,03,14,48,23.50
2006,09,03,14,49,23.60
2006,09,03,14,50,23.70
2006,09,03,14,51,23.80
2006,09,03,14,52,23.90
2006,09,03,14,53,24.00
2006,09,03,14,54,24.10
2006,09,03,14,55,24.20
2006,09,03,14,56,24.10
2006,09,03,14,57,24.10
2006,09,03,14,58,24.10
2006,09,03,14,59,24.10
2006,09,03,15,00,24.20
2006,09,03,15,01,24.30
2006,09,03,15,02,24.30
2006,09,03,15,03,24.40
2006,09,03,15,04,24.50
2006,09,03,15,05,24.50
2006,09,03,15,06,24.60
2006,09,03,15,07,24.70
2006,09,03,15,08,24.70
2006,09,03,15,09,24.70
2006,09,03,15,10,24.80
2006,09,03,15,11,24.80
2006,09,03,15,12,24.90
2006,09,03,15,13,24.90
2006,09,03,15,14,24.90
2006,09,03,15,15,24.90
2006,09,03,15,16,24.90
2006,09,03,15,17,24.90
2006,09,03,15,18,24.90
2006,09,03,15,19,24.80
2006,09,03,15,20,24.70
2006,09,03,15,21,24.60
2006,09,03,15,22,24.50
2006,09,03,15,23,24.50
2006,09,03,15,24,24.40
2006,09,03,15,25,24.40
2006,09,03,15,26,24.30
2006,09,03,15,27,24.30
2006,09,03,15,28,24.20
2006,09,03,15,29,24.20
2006,09,03,15,30,24.20
2006,09,03,15,31,24.30
2006,09,03,15,32,24.30
2006,09,03,15,33,24.30
2006,09,03,15,34,24.40
2006,09,03,15,35,24.40
2006,09,03,15,36,24.40
2006,09,03,15,37,24.40
2006,09,03,15,38,24.50
2006,09,03,15,39,24.50
2006,09,03,15,40,24.60
2006,09,03,15,41,24.60
2006,09,03,15,42,24.70
2006,09,03,15,43,24.80
2006,09,03,15,44,24.80
2006,09,03,15,45,24.90
2006,09,03,15,46,25.10
2006,09,03,15,47,25.20
2006,09,03,15,48,25.40
2006,09,03,15,49,25.40
2006,09,03,15,50,25.50
2006,09,03,15,51,25.50
2006,09,03,15,52,25.30
2006,09,03,15,53,25.20
2006,09,03,15,54,25.00
2006,09,03,15,55,24.90
2006,09,03,15,56,24.90
2006,09,03,15,57,24.90
2006,09,03,15,58,24.90
2006,09,03,15,59,24.90
2006,09,03,16,00,25.00
2006,09,03,16,01,25.00
2006,09,03,16,02,25.20
2006,09,03,16,03,25.30
2006,09,03,16,04,25.40
2006,09,03,16,05,25.50
2006,09,03,16,06,25.60
2006,09,03,16,07,25.70
2006,09,03,16,08,25.70
2006,09,03,16,09,25.80
2006,09,03,16,10,25.80
2006,09,03,16,11,25.80
2006,09,03,16,12,25.80
2006,09,03,16,13,25.90
2006,09,03,16,14,25.90
2006,09,03,16,15,25.90
2006,09,03,16,16,26.00
2006,09,03,16,17,26.00
2006,09,03,16,18,26.00
2006,09,03,16,19,26.00
2006,09,03,16,20,25.90
2006,09,03,16,21,25.90
2006,09,03,16,22,25.80
2006,09,03,16,23,25.70
2006,09,03,16,24,25.60
2006,09,03,16,25,25.70
2006,09,03,16,26,25.70
2006,09,03,16,27,25.70
2006,09,03,16,28,25.70
2006,09,03,16,29,25.80
2006,09,03,16,30,25.90
2006,09,03,16,31,25.90
2006,09,03,16,32,26.00
2006,09,03,16,33,26.10
2006,09,03,16,34,26.10
2006,09,03,16,35,26.10
2006,09,03,16,36,26.10
2006,09,03,16,37,26.10
2006,09,03,16,38,26.10
2006,09,03,16,39,26.10
2006,09,03,16,40,26.10
2006,09,03,16,41,26.20
2006,09,03,16,42,26.20
2006,09,03,16,43,26.20
2006,09,03,16,44,26.20
2006,09,03,16,45,26.20
2006,09,03,16,46,26.30
2006,09,03,16,47,26.30
2006,09,03,16,48,26.30
2006,09,03,16,49,26.30
2006,09,03,16,50,26.30
2006,09,03,16,51,26.40
2006,09,03,16,52,26.40
2006,09,03,16,53,26.50
2006,09,03,16,54,26.60
2006,09,03,16,55,26.60
2006,09,03,16,56,26.60
2006,09,03,16,57,26.60
2006,09,03,16,58,26.50
2006,09,03,16,59,26.40
2006,09,03,17,00,26.30
2006,09,03,17,01,26.20
2006,09,03,17,02,26.20
2006,09,03,17,03,26.10
2006,09,03,17,04,26.10
2006,09,03,17,05,26.10
2006,09,03,17,06,26.00
2006,09,03,17,07,26.00
2006,09,03,17,08,25.90
2006,09,03,17,09,25.90
2006,09,03,17,10,25.80
2006,09,03,17,11,25.80
2006,09,03,17,12,25.70
2006,09,03,17,13,25.70
2006,09,03,17,14,25.70
2006,09,03,17,15,25.80
2006,09,03,17,16,25.90
2006,09,03,17,17,25.90
2006,09,03,17,18,26.00
2006,09,03,17,19,26.10